owner,sensor,date,latitude,longitude,vertical_datum,sea_water_practical_salinity,qcFlag 
SCCF RECON,ioos:station:SCCF:51:1,2009-04-01T00:00:00Z,26.5545,-82.1715,1.813,35.78,1111122 
SCCF RECON,ioos:station:SCCF:51:1,2009-04-01T01:00:00Z,26.5545,-82.1715,1.7,35.84,1111122 
SCCF RECON,ioos:station:SCCF:51:1,2009-04-01T02:00:00Z,26.5545,-82.1715,1.587,35.82,1111122 
SCCF RECON,ioos:station:SCCF:51:1,2009-04-01T03:00:00Z,26.5545,-82.1715,1.487,35.84,1111122 
SCCF RECON,ioos:station:SCCF:51:1,2009-04-01T04:00:00Z,26.5545,-82.1715,1.409,35.83,1111122 
SCCF RECON,ioos:station:SCCF:51:1,2009-04-01T05:00:00Z,26.5545,-82.1715,1.366,35.84,1111122 
SCCF RECON,ioos:station:SCCF:51:1,2009-04-01T06:00:00Z,26.5545,-82.1715,1.401,35.83,1111122 
SCCF RECON,ioos:station:SCCF:51:1,2009-04-01T07:00:00Z,26.5545,-82.1715,1.482,35.84,1111122 
SCCF RECON,ioos:station:SCCF:51:1,2009-04-01T08:00:00Z,26.5545,-82.1715,1.573,35.84,1111122 
SCCF RECON,ioos:station:SCCF:51:1,2009-04-01T09:00:00Z,26.5545,-82.1715,1.657,35.8,1111122 
SCCF RECON,ioos:station:SCCF:51:1,2009-04-01T10:00:00Z,26.5545,-82.1715,1.729,35.74,1111122 
SCCF RECON,ioos:station:SCCF:51:1,2009-04-01T11:00:00Z,26.5545,-82.1715,1.789,35.73,1111122 
SCCF RECON,ioos:station:SCCF:51:1,2009-04-01T12:00:00Z,26.5545,-82.1715,1.836,35.84,1111122 
SCCF RECON,ioos:station:SCCF:51:1,2009-04-01T13:00:00Z,26.5545,-82.1715,1.854,35.83,1111122 
SCCF RECON,ioos:station:SCCF:51:1,2009-04-01T14:00:00Z,26.5545,-82.1715,1.88,35.75,1111122 
SCCF RECON,ioos:station:SCCF:51:1,2009-04-01T15:00:00Z,26.5545,-82.1715,1.902,35.74,1111122 
SCCF RECON,ioos:station:SCCF:51:1,2009-04-01T16:00:00Z,26.5545,-82.1715,1.917,35.78,1111122 
SCCF RECON,ioos:station:SCCF:51:1,2009-04-01T17:00:00Z,26.5545,-82.1715,1.96,35.79,1111122 
SCCF RECON,ioos:station:SCCF:51:1,2009-04-01T18:00:00Z,26.5545,-82.1715,2.001,35.75,1111122 
SCCF RECON,ioos:station:SCCF:51:1,2009-04-01T19:00:00Z,26.5545,-82.1715,2.048,35.72,1111122 
SCCF RECON,ioos:station:SCCF:51:1,2009-04-01T20:00:00Z,26.5545,-82.1715,2.091,35.85,1111122 
SCCF RECON,ioos:station:SCCF:51:1,2009-04-01T21:00:00Z,26.5545,-82.1715,2.092,35.89,1111122 
SCCF RECON,ioos:station:SCCF:51:1,2009-04-01T22:00:00Z,26.5545,-82.1715,2.066,35.79,1111122 
SCCF RECON,ioos:station:SCCF:51:1,2009-04-01T23:00:00Z,26.5545,-82.1715,2.021,35.76,1111122 
SCCF RECON,ioos:station:SCCF:51:1,2009-04-02T00:00:00Z,26.5545,-82.1715,1.958,35.88,1111122 
SCCF RECON,ioos:station:SCCF:51:1,2009-04-02T01:00:00Z,26.5545,-82.1715,1.877,35.9,1111122 
SCCF RECON,ioos:station:SCCF:51:1,2009-04-02T02:00:00Z,26.5545,-82.1715,1.777,35.89,1111122 
SCCF RECON,ioos:station:SCCF:51:1,2009-04-02T03:00:00Z,26.5545,-82.1715,1.665,35.86,1111122 
SCCF RECON,ioos:station:SCCF:51:1,2009-04-02T04:00:00Z,26.5545,-82.1715,1.556,35.84,1111122 
SCCF RECON,ioos:station:SCCF:51:1,2009-04-02T05:00:00Z,26.5545,-82.1715,1.461,35.86,1111122 
SCCF RECON,ioos:station:SCCF:51:1,2009-04-02T06:00:00Z,26.5545,-82.1715,1.403,35.87,1111122 
SCCF RECON,ioos:station:SCCF:51:1,2009-04-02T07:00:00Z,26.5545,-82.1715,1.419,35.88,1111122 
SCCF RECON,ioos:station:SCCF:51:1,2009-04-02T08:00:00Z,26.5545,-82.1715,1.476,35.88,1111122 
SCCF RECON,ioos:station:SCCF:51:1,2009-04-02T09:00:00Z,26.5545,-82.1715,1.567,35.85,1111122 
SCCF RECON,ioos:station:SCCF:51:1,2009-04-02T10:00:00Z,26.5545,-82.1715,1.662,35.84,1111122 
SCCF RECON,ioos:station:SCCF:51:1,2009-04-02T11:00:00Z,26.5545,-82.1715,1.751,35.97,1111122 
SCCF RECON,ioos:station:SCCF:51:1,2009-04-02T12:00:00Z,26.5545,-82.1715,1.837,36.04,1111122 
SCCF RECON,ioos:station:SCCF:51:1,2009-04-02T13:00:00Z,26.5545,-82.1715,1.909,36.05,1111122 
SCCF RECON,ioos:station:SCCF:51:1,2009-04-02T14:00:00Z,26.5545,-82.1715,1.951,36.05,1111122 
SCCF RECON,ioos:station:SCCF:51:1,2009-04-02T15:00:00Z,26.5545,-82.1715,1.945,36.0,1111122 
SCCF RECON,ioos:station:SCCF:51:1,2009-04-02T16:00:00Z,26.5545,-82.1715,1.928,36.02,1111122 
SCCF RECON,ioos:station:SCCF:51:1,2009-04-02T17:00:00Z,26.5545,-82.1715,1.937,36.06,1111122 
SCCF RECON,ioos:station:SCCF:51:1,2009-04-02T18:00:00Z,26.5545,-82.1715,1.974,36.07,1111122 
SCCF RECON,ioos:station:SCCF:51:1,2009-04-02T19:00:00Z,26.5545,-82.1715,2.01,36.06,1111122 
SCCF RECON,ioos:station:SCCF:51:1,2009-04-02T20:00:00Z,26.5545,-82.1715,2.053,36.05,1111122 
SCCF RECON,ioos:station:SCCF:51:1,2009-04-02T21:00:00Z,26.5545,-82.1715,2.086,36.06,1111122 
SCCF RECON,ioos:station:SCCF:51:1,2009-04-02T22:00:00Z,26.5545,-82.1715,2.072,36.05,1111122 
SCCF RECON,ioos:station:SCCF:51:1,2009-04-02T23:00:00Z,26.5545,-82.1715,2.049,36.07,1111122 
SCCF RECON,ioos:station:SCCF:51:1,2009-04-03T00:00:00Z,26.5545,-82.1715,2.017,36.07,1111122 
SCCF RECON,ioos:station:SCCF:51:1,2009-04-03T01:00:00Z,26.5545,-82.1715,1.975,35.95,1111122 
SCCF RECON,ioos:station:SCCF:51:1,2009-04-03T02:00:00Z,26.5545,-82.1715,1.898,35.97,1111122 
SCCF RECON,ioos:station:SCCF:51:1,2009-04-03T03:00:00Z,26.5545,-82.1715,1.807,35.93,1111122 
SCCF RECON,ioos:station:SCCF:51:1,2009-04-03T04:00:00Z,26.5545,-82.1715,1.714,35.91,1111122 
SCCF RECON,ioos:station:SCCF:51:1,2009-04-03T05:00:00Z,26.5545,-82.1715,1.611,35.97,1111122 
SCCF RECON,ioos:station:SCCF:51:1,2009-04-03T06:00:00Z,26.5545,-82.1715,1.54,35.93,1111122 
SCCF RECON,ioos:station:SCCF:51:1,2009-04-03T07:00:00Z,26.5545,-82.1715,1.473,35.99,1111122 
SCCF RECON,ioos:station:SCCF:51:1,2009-04-03T08:00:00Z,26.5545,-82.1715,1.478,35.99,1111122 
SCCF RECON,ioos:station:SCCF:51:1,2009-04-03T09:00:00Z,26.5545,-82.1715,1.534,35.96,1111122 
SCCF RECON,ioos:station:SCCF:51:1,2009-04-03T10:00:00Z,26.5545,-82.1715,1.616,35.94,1111122 
SCCF RECON,ioos:station:SCCF:51:1,2009-04-03T11:00:00Z,26.5545,-82.1715,1.71,35.99,1111122 
SCCF RECON,ioos:station:SCCF:51:1,2009-04-03T12:00:00Z,26.5545,-82.1715,1.805,36.0,1111122 
SCCF RECON,ioos:station:SCCF:51:1,2009-04-03T13:00:00Z,26.5545,-82.1715,1.91,36.02,1111122 
SCCF RECON,ioos:station:SCCF:51:1,2009-04-03T14:00:00Z,26.5545,-82.1715,1.0,-9999.0,1111122 
SCCF RECON,ioos:station:SCCF:51:1,2009-04-03T15:00:00Z,26.5545,-82.1715,2.003,36.08,1111122 
SCCF RECON,ioos:station:SCCF:51:1,2009-04-03T16:00:00Z,26.5545,-82.1715,1.985,36.05,1111122 
SCCF RECON,ioos:station:SCCF:51:1,2009-04-03T17:00:00Z,26.5545,-82.1715,1.964,36.0,1111122 
SCCF RECON,ioos:station:SCCF:51:1,2009-04-03T18:00:00Z,26.5545,-82.1715,1.924,36.06,1111122 
SCCF RECON,ioos:station:SCCF:51:1,2009-04-03T19:00:00Z,26.5545,-82.1715,1.911,36.03,1111122 
SCCF RECON,ioos:station:SCCF:51:1,2009-04-03T20:00:00Z,26.5545,-82.1715,1.943,36.05,1111122 
SCCF RECON,ioos:station:SCCF:51:1,2009-04-03T21:00:00Z,26.5545,-82.1715,2.015,36.02,1111122 
SCCF RECON,ioos:station:SCCF:51:1,2009-04-03T22:00:00Z,26.5545,-82.1715,2.042,36.04,1111122 
SCCF RECON,ioos:station:SCCF:51:1,2009-04-03T23:00:00Z,26.5545,-82.1715,2.053,36.05,1111122 
SCCF RECON,ioos:station:SCCF:51:1,2009-04-04T00:00:00Z,26.5545,-82.1715,2.034,36.02,1111122 
SCCF RECON,ioos:station:SCCF:51:1,2009-04-04T01:00:00Z,26.5545,-82.1715,1.99,36.02,1111122 
SCCF RECON,ioos:station:SCCF:51:1,2009-04-04T02:00:00Z,26.5545,-82.1715,1.943,36.05,1111122 
SCCF RECON,ioos:station:SCCF:51:1,2009-04-04T03:00:00Z,26.5545,-82.1715,1.88,36.08,1111122 
SCCF RECON,ioos:station:SCCF:51:1,2009-04-04T04:00:00Z,26.5545,-82.1715,1.8,36.06,1111122 
SCCF RECON,ioos:station:SCCF:51:1,2009-04-04T05:00:00Z,26.5545,-82.1715,1.7,36.07,1111122 
SCCF RECON,ioos:station:SCCF:51:1,2009-04-04T06:00:00Z,26.5545,-82.1715,1.6,36.09,1111122 
SCCF RECON,ioos:station:SCCF:51:1,2009-04-04T07:00:00Z,26.5545,-82.1715,1.492,36.07,1111122 
SCCF RECON,ioos:station:SCCF:51:1,2009-04-04T08:00:00Z,26.5545,-82.1715,1.41,36.06,1111122 
SCCF RECON,ioos:station:SCCF:51:1,2009-04-04T09:00:00Z,26.5545,-82.1715,1.395,36.07,1111122 
SCCF RECON,ioos:station:SCCF:51:1,2009-04-04T10:00:00Z,26.5545,-82.1715,1.452,36.09,1111122 
SCCF RECON,ioos:station:SCCF:51:1,2009-04-04T11:00:00Z,26.5545,-82.1715,1.541,36.08,1111122 
SCCF RECON,ioos:station:SCCF:51:1,2009-04-04T12:00:00Z,26.5545,-82.1715,1.652,36.07,1111122 
SCCF RECON,ioos:station:SCCF:51:1,2009-04-04T13:00:00Z,26.5545,-82.1715,1.751,36.06,1111122 
SCCF RECON,ioos:station:SCCF:51:1,2009-04-04T14:00:00Z,26.5545,-82.1715,1.822,36.08,1111122 
SCCF RECON,ioos:station:SCCF:51:1,2009-04-04T15:00:00Z,26.5545,-82.1715,1.862,36.07,1111122 
SCCF RECON,ioos:station:SCCF:51:1,2009-04-04T16:00:00Z,26.5545,-82.1715,1.867,36.06,1111122 
SCCF RECON,ioos:station:SCCF:51:1,2009-04-04T17:00:00Z,26.5545,-82.1715,1.837,36.07,1111122 
SCCF RECON,ioos:station:SCCF:51:1,2009-04-04T18:00:00Z,26.5545,-82.1715,1.802,36.08,1111122 
SCCF RECON,ioos:station:SCCF:51:1,2009-04-04T19:00:00Z,26.5545,-82.1715,1.759,36.08,1111122 
SCCF RECON,ioos:station:SCCF:51:1,2009-04-04T20:00:00Z,26.5545,-82.1715,1.731,36.08,1111122 
SCCF RECON,ioos:station:SCCF:51:1,2009-04-04T21:00:00Z,26.5545,-82.1715,1.741,36.09,1111122 
SCCF RECON,ioos:station:SCCF:51:1,2009-04-04T22:00:00Z,26.5545,-82.1715,1.794,36.07,1111122 
SCCF RECON,ioos:station:SCCF:51:1,2009-04-04T23:00:00Z,26.5545,-82.1715,1.869,36.07,1111122 
SCCF RECON,ioos:station:SCCF:51:1,2009-04-05T00:00:00Z,26.5545,-82.1715,1.931,36.07,1111122 
SCCF RECON,ioos:station:SCCF:51:1,2009-04-05T01:00:00Z,26.5545,-82.1715,1.979,36.07,1111122 
SCCF RECON,ioos:station:SCCF:51:1,2009-04-05T02:00:00Z,26.5545,-82.1715,1.985,36.07,1111122 
SCCF RECON,ioos:station:SCCF:51:1,2009-04-05T03:00:00Z,26.5545,-82.1715,1.973,36.07,1111122 
SCCF RECON,ioos:station:SCCF:51:1,2009-04-05T04:00:00Z,26.5545,-82.1715,1.93,36.08,1111122 
SCCF RECON,ioos:station:SCCF:51:1,2009-04-05T05:00:00Z,26.5545,-82.1715,1.84,36.09,1111122 
SCCF RECON,ioos:station:SCCF:51:1,2009-04-05T06:00:00Z,26.5545,-82.1715,1.73,36.08,1111122 
SCCF RECON,ioos:station:SCCF:51:1,2009-04-05T07:00:00Z,26.5545,-82.1715,1.62,36.07,1111122 
SCCF RECON,ioos:station:SCCF:51:1,2009-04-05T08:00:00Z,26.5545,-82.1715,1.511,36.07,1111122 
SCCF RECON,ioos:station:SCCF:51:1,2009-04-05T09:00:00Z,26.5545,-82.1715,1.434,36.06,1111122 
SCCF RECON,ioos:station:SCCF:51:1,2009-04-05T10:00:00Z,26.5545,-82.1715,1.43,36.06,1111122 
SCCF RECON,ioos:station:SCCF:51:1,2009-04-05T11:00:00Z,26.5545,-82.1715,1.5,36.06,1111122 
SCCF RECON,ioos:station:SCCF:51:1,2009-04-05T12:00:00Z,26.5545,-82.1715,1.607,36.08,1111122 
SCCF RECON,ioos:station:SCCF:51:1,2009-04-05T13:00:00Z,26.5545,-82.1715,1.728,36.08,1111122 
SCCF RECON,ioos:station:SCCF:51:1,2009-04-05T14:00:00Z,26.5545,-82.1715,1.837,36.09,1111122 
SCCF RECON,ioos:station:SCCF:51:1,2009-04-05T15:00:00Z,26.5545,-82.1715,1.918,36.09,1111122 
SCCF RECON,ioos:station:SCCF:51:1,2009-04-05T16:00:00Z,26.5545,-82.1715,1.965,36.09,1111122 
SCCF RECON,ioos:station:SCCF:51:1,2009-04-05T17:00:00Z,26.5545,-82.1715,1.943,36.08,1111122 
SCCF RECON,ioos:station:SCCF:51:1,2009-04-05T18:00:00Z,26.5545,-82.1715,1.877,36.09,1111122 
SCCF RECON,ioos:station:SCCF:51:1,2009-04-05T19:00:00Z,26.5545,-82.1715,1.8,36.09,1111122 
SCCF RECON,ioos:station:SCCF:51:1,2009-04-05T20:00:00Z,26.5545,-82.1715,1.718,36.08,1111122 
SCCF RECON,ioos:station:SCCF:51:1,2009-04-05T21:00:00Z,26.5545,-82.1715,1.673,36.1,1111122 
SCCF RECON,ioos:station:SCCF:51:1,2009-04-05T22:00:00Z,26.5545,-82.1715,1.691,36.09,1111122 
SCCF RECON,ioos:station:SCCF:51:1,2009-04-05T23:00:00Z,26.5545,-82.1715,1.752,36.1,1111122 
SCCF RECON,ioos:station:SCCF:51:1,2009-04-06T00:00:00Z,26.5545,-82.1715,1.842,36.09,1111122 
SCCF RECON,ioos:station:SCCF:51:1,2009-04-06T01:00:00Z,26.5545,-82.1715,1.94,36.08,1111122 
SCCF RECON,ioos:station:SCCF:51:1,2009-04-06T02:00:00Z,26.5545,-82.1715,2.017,36.07,1111122 
SCCF RECON,ioos:station:SCCF:51:1,2009-04-06T03:00:00Z,26.5545,-82.1715,2.047,36.08,1111122 
SCCF RECON,ioos:station:SCCF:51:1,2009-04-06T04:00:00Z,26.5545,-82.1715,2.028,36.08,1111122 
SCCF RECON,ioos:station:SCCF:51:1,2009-04-06T05:00:00Z,26.5545,-82.1715,1.965,36.08,1111122 
SCCF RECON,ioos:station:SCCF:51:1,2009-04-06T06:00:00Z,26.5545,-82.1715,1.866,36.1,1111122 
SCCF RECON,ioos:station:SCCF:51:1,2009-04-06T07:00:00Z,26.5545,-82.1715,1.75,36.11,1111122 
SCCF RECON,ioos:station:SCCF:51:1,2009-04-06T08:00:00Z,26.5545,-82.1715,1.631,36.12,1111122 
SCCF RECON,ioos:station:SCCF:51:1,2009-04-06T09:00:00Z,26.5545,-82.1715,1.538,36.12,1111122 
SCCF RECON,ioos:station:SCCF:51:1,2009-04-06T10:00:00Z,26.5545,-82.1715,1.483,36.11,1111122 
SCCF RECON,ioos:station:SCCF:51:1,2009-04-06T11:00:00Z,26.5545,-82.1715,1.518,36.12,1111122 
SCCF RECON,ioos:station:SCCF:51:1,2009-04-06T12:00:00Z,26.5545,-82.1715,1.603,36.12,1111122 
SCCF RECON,ioos:station:SCCF:51:1,2009-04-06T13:00:00Z,26.5545,-82.1715,1.717,36.12,1111122 
SCCF RECON,ioos:station:SCCF:51:1,2009-04-06T14:00:00Z,26.5545,-82.1715,1.833,36.1,1111122 
SCCF RECON,ioos:station:SCCF:51:1,2009-04-06T15:00:00Z,26.5545,-82.1715,1.926,36.13,1111122 
SCCF RECON,ioos:station:SCCF:51:1,2009-04-06T16:00:00Z,26.5545,-82.1715,1.974,36.13,1111122 
SCCF RECON,ioos:station:SCCF:51:1,2009-04-06T17:00:00Z,26.5545,-82.1715,1.963,36.1,1111122 
SCCF RECON,ioos:station:SCCF:51:1,2009-04-06T18:00:00Z,26.5545,-82.1715,1.895,36.1,1111122 
SCCF RECON,ioos:station:SCCF:51:1,2009-04-06T19:00:00Z,26.5545,-82.1715,1.806,36.13,1111122 
SCCF RECON,ioos:station:SCCF:51:1,2009-04-06T20:00:00Z,26.5545,-82.1715,1.702,36.13,1111122 
SCCF RECON,ioos:station:SCCF:51:1,2009-04-06T21:00:00Z,26.5545,-82.1715,1.647,36.13,1111122 
SCCF RECON,ioos:station:SCCF:51:1,2009-04-06T22:00:00Z,26.5545,-82.1715,1.64,36.14,1111122 
SCCF RECON,ioos:station:SCCF:51:1,2009-04-06T23:00:00Z,26.5545,-82.1715,1.637,36.15,1111122 
SCCF RECON,ioos:station:SCCF:51:1,2009-04-07T00:00:00Z,26.5545,-82.1715,1.687,36.14,1111122 
SCCF RECON,ioos:station:SCCF:51:1,2009-04-07T01:00:00Z,26.5545,-82.1715,1.758,36.16,1111122 
SCCF RECON,ioos:station:SCCF:51:1,2009-04-07T02:00:00Z,26.5545,-82.1715,1.845,36.15,1111122 
SCCF RECON,ioos:station:SCCF:51:1,2009-04-07T03:00:00Z,26.5545,-82.1715,1.933,36.17,1111122 
SCCF RECON,ioos:station:SCCF:51:1,2009-04-07T04:00:00Z,26.5545,-82.1715,1.992,36.15,1111122 
SCCF RECON,ioos:station:SCCF:51:1,2009-04-07T05:00:00Z,26.5545,-82.1715,1.991,36.15,1111122 
SCCF RECON,ioos:station:SCCF:51:1,2009-04-07T06:00:00Z,26.5545,-82.1715,1.928,36.17,1111122 
SCCF RECON,ioos:station:SCCF:51:1,2009-04-07T07:00:00Z,26.5545,-82.1715,1.835,36.17,1111122 
SCCF RECON,ioos:station:SCCF:51:1,2009-04-07T08:00:00Z,26.5545,-82.1715,1.727,36.18,1111122 
SCCF RECON,ioos:station:SCCF:51:1,2009-04-07T09:00:00Z,26.5545,-82.1715,1.628,36.2,1111122 
SCCF RECON,ioos:station:SCCF:51:1,2009-04-07T10:00:00Z,26.5545,-82.1715,1.568,36.2,1111122 
SCCF RECON,ioos:station:SCCF:51:1,2009-04-07T11:00:00Z,26.5545,-82.1715,1.545,36.22,1111122 
SCCF RECON,ioos:station:SCCF:51:1,2009-04-07T12:00:00Z,26.5545,-82.1715,1.551,36.23,1111122 
SCCF RECON,ioos:station:SCCF:51:1,2009-04-07T13:00:00Z,26.5545,-82.1715,1.626,36.18,1111122 
SCCF RECON,ioos:station:SCCF:51:1,2009-04-07T14:00:00Z,26.5545,-82.1715,1.711,36.18,1111122 
SCCF RECON,ioos:station:SCCF:51:1,2009-04-07T15:00:00Z,26.5545,-82.1715,1.785,36.22,1111122 
SCCF RECON,ioos:station:SCCF:51:1,2009-04-07T16:00:00Z,26.5545,-82.1715,1.825,36.26,1111122 
SCCF RECON,ioos:station:SCCF:51:1,2009-04-07T17:00:00Z,26.5545,-82.1715,1.832,36.24,1111122 
SCCF RECON,ioos:station:SCCF:51:1,2009-04-07T18:00:00Z,26.5545,-82.1715,1.77,36.22,1111122 
SCCF RECON,ioos:station:SCCF:51:1,2009-04-07T19:00:00Z,26.5545,-82.1715,1.682,36.23,1111122 
SCCF RECON,ioos:station:SCCF:51:1,2009-04-07T20:00:00Z,26.5545,-82.1715,1.585,36.22,1111122 
SCCF RECON,ioos:station:SCCF:51:1,2009-04-07T21:00:00Z,26.5545,-82.1715,1.499,36.23,1111122 
SCCF RECON,ioos:station:SCCF:51:1,2009-04-07T22:00:00Z,26.5545,-82.1715,1.44,36.24,1111122 
SCCF RECON,ioos:station:SCCF:51:1,2009-04-07T23:00:00Z,26.5545,-82.1715,1.0,-9999.0,1111122 
SCCF RECON,ioos:station:SCCF:51:1,2009-04-08T00:00:00Z,26.5545,-82.1715,1.429,36.3,1111122 
SCCF RECON,ioos:station:SCCF:51:1,2009-04-08T01:00:00Z,26.5545,-82.1715,1.488,36.31,1111122 
SCCF RECON,ioos:station:SCCF:51:1,2009-04-08T02:00:00Z,26.5545,-82.1715,1.586,36.34,1111122 
SCCF RECON,ioos:station:SCCF:51:1,2009-04-08T03:00:00Z,26.5545,-82.1715,1.68,36.16,1111122 
SCCF RECON,ioos:station:SCCF:51:1,2009-04-08T04:00:00Z,26.5545,-82.1715,1.792,36.14,1111122 
SCCF RECON,ioos:station:SCCF:51:1,2009-04-08T05:00:00Z,26.5545,-82.1715,1.865,36.16,1111122 
SCCF RECON,ioos:station:SCCF:51:1,2009-04-08T06:00:00Z,26.5545,-82.1715,1.865,36.18,1111122 
SCCF RECON,ioos:station:SCCF:51:1,2009-04-08T07:00:00Z,26.5545,-82.1715,1.789,36.12,1111122 
SCCF RECON,ioos:station:SCCF:51:1,2009-04-08T08:00:00Z,26.5545,-82.1715,1.695,36.21,1111122 
SCCF RECON,ioos:station:SCCF:51:1,2009-04-08T09:00:00Z,26.5545,-82.1715,1.598,36.23,1111122 
SCCF RECON,ioos:station:SCCF:51:1,2009-04-08T10:00:00Z,26.5545,-82.1715,1.522,36.22,1111122 
SCCF RECON,ioos:station:SCCF:51:1,2009-04-08T11:00:00Z,26.5545,-82.1715,1.484,36.2,1111122 
SCCF RECON,ioos:station:SCCF:51:1,2009-04-08T12:00:00Z,26.5545,-82.1715,1.497,36.09,1111122 
SCCF RECON,ioos:station:SCCF:51:1,2009-04-08T13:00:00Z,26.5545,-82.1715,1.572,36.33,1111122 
SCCF RECON,ioos:station:SCCF:51:1,2009-04-08T14:00:00Z,26.5545,-82.1715,1.663,36.28,1111122 
SCCF RECON,ioos:station:SCCF:51:1,2009-04-08T15:00:00Z,26.5545,-82.1715,1.79,36.19,1111122 
SCCF RECON,ioos:station:SCCF:51:1,2009-04-08T16:00:00Z,26.5545,-82.1715,1.9,36.16,1111122 
SCCF RECON,ioos:station:SCCF:51:1,2009-04-08T17:00:00Z,26.5545,-82.1715,1.952,36.18,1111122 
SCCF RECON,ioos:station:SCCF:51:1,2009-04-08T18:00:00Z,26.5545,-82.1715,1.92,36.21,1111122 
SCCF RECON,ioos:station:SCCF:51:1,2009-04-08T19:00:00Z,26.5545,-82.1715,1.832,36.24,1111122 
SCCF RECON,ioos:station:SCCF:51:1,2009-04-08T20:00:00Z,26.5545,-82.1715,1.715,36.24,1111122 
SCCF RECON,ioos:station:SCCF:51:1,2009-04-08T21:00:00Z,26.5545,-82.1715,1.585,36.27,1111122 
SCCF RECON,ioos:station:SCCF:51:1,2009-04-08T22:00:00Z,26.5545,-82.1715,1.482,36.34,1111122 
SCCF RECON,ioos:station:SCCF:51:1,2009-04-08T23:00:00Z,26.5545,-82.1715,1.409,36.39,1111122 
SCCF RECON,ioos:station:SCCF:51:1,2009-04-09T00:00:00Z,26.5545,-82.1715,1.384,36.41,1111122 
SCCF RECON,ioos:station:SCCF:51:1,2009-04-09T01:00:00Z,26.5545,-82.1715,1.44,36.37,1111122 
SCCF RECON,ioos:station:SCCF:51:1,2009-04-09T02:00:00Z,26.5545,-82.1715,1.521,36.32,1111122 
SCCF RECON,ioos:station:SCCF:51:1,2009-04-09T03:00:00Z,26.5545,-82.1715,1.65,36.22,1111122 
SCCF RECON,ioos:station:SCCF:51:1,2009-04-09T04:00:00Z,26.5545,-82.1715,1.77,36.18,1111122 
SCCF RECON,ioos:station:SCCF:51:1,2009-04-09T05:00:00Z,26.5545,-82.1715,1.876,36.19,1111122 
SCCF RECON,ioos:station:SCCF:51:1,2009-04-09T06:00:00Z,26.5545,-82.1715,1.93,36.2,1111122 
SCCF RECON,ioos:station:SCCF:51:1,2009-04-09T07:00:00Z,26.5545,-82.1715,1.91,36.24,1111122 
SCCF RECON,ioos:station:SCCF:51:1,2009-04-09T08:00:00Z,26.5545,-82.1715,1.831,36.24,1111122 
SCCF RECON,ioos:station:SCCF:51:1,2009-04-09T09:00:00Z,26.5545,-82.1715,1.733,36.29,1111122 
SCCF RECON,ioos:station:SCCF:51:1,2009-04-09T10:00:00Z,26.5545,-82.1715,1.65,36.33,1111122 
SCCF RECON,ioos:station:SCCF:51:1,2009-04-09T11:00:00Z,26.5545,-82.1715,1.592,36.36,1111122 
SCCF RECON,ioos:station:SCCF:51:1,2009-04-09T12:00:00Z,26.5545,-82.1715,1.605,36.35,1111122 
SCCF RECON,ioos:station:SCCF:51:1,2009-04-09T13:00:00Z,26.5545,-82.1715,1.662,36.3,1111122 
SCCF RECON,ioos:station:SCCF:51:1,2009-04-09T14:00:00Z,26.5545,-82.1715,1.752,36.26,1111122 
SCCF RECON,ioos:station:SCCF:51:1,2009-04-09T15:00:00Z,26.5545,-82.1715,1.882,36.2,1111122 
SCCF RECON,ioos:station:SCCF:51:1,2009-04-09T16:00:00Z,26.5545,-82.1715,1.998,36.19,1111122 
SCCF RECON,ioos:station:SCCF:51:1,2009-04-09T17:00:00Z,26.5545,-82.1715,2.042,36.19,1111122 
SCCF RECON,ioos:station:SCCF:51:1,2009-04-09T18:00:00Z,26.5545,-82.1715,2.009,36.23,1111122 
SCCF RECON,ioos:station:SCCF:51:1,2009-04-09T19:00:00Z,26.5545,-82.1715,1.923,36.26,1111122 
SCCF RECON,ioos:station:SCCF:51:1,2009-04-09T20:00:00Z,26.5545,-82.1715,1.811,36.33,1111122 
SCCF RECON,ioos:station:SCCF:51:1,2009-04-09T21:00:00Z,26.5545,-82.1715,1.684,36.4,1111122 
SCCF RECON,ioos:station:SCCF:51:1,2009-04-09T22:00:00Z,26.5545,-82.1715,1.563,36.44,1111122 
SCCF RECON,ioos:station:SCCF:51:1,2009-04-09T23:00:00Z,26.5545,-82.1715,1.453,36.44,1111122 
SCCF RECON,ioos:station:SCCF:51:1,2009-04-10T00:00:00Z,26.5545,-82.1715,1.371,36.46,1111122 
SCCF RECON,ioos:station:SCCF:51:1,2009-04-10T01:00:00Z,26.5545,-82.1715,1.373,36.45,1111122 
SCCF RECON,ioos:station:SCCF:51:1,2009-04-10T02:00:00Z,26.5545,-82.1715,1.458,36.43,1111122 
SCCF RECON,ioos:station:SCCF:51:1,2009-04-10T03:00:00Z,26.5545,-82.1715,1.584,36.44,1111122 
SCCF RECON,ioos:station:SCCF:51:1,2009-04-10T04:00:00Z,26.5545,-82.1715,1.754,36.31,1111122 
SCCF RECON,ioos:station:SCCF:51:1,2009-04-10T05:00:00Z,26.5545,-82.1715,1.867,36.38,1111122 
SCCF RECON,ioos:station:SCCF:51:1,2009-04-10T06:00:00Z,26.5545,-82.1715,1.945,36.3,1111122 
SCCF RECON,ioos:station:SCCF:51:1,2009-04-10T07:00:00Z,26.5545,-82.1715,1.956,36.34,1111122 
SCCF RECON,ioos:station:SCCF:51:1,2009-04-10T08:00:00Z,26.5545,-82.1715,1.913,36.47,1111122 
SCCF RECON,ioos:station:SCCF:51:1,2009-04-10T09:00:00Z,26.5545,-82.1715,1.861,36.47,1111122 
SCCF RECON,ioos:station:SCCF:51:1,2009-04-10T10:00:00Z,26.5545,-82.1715,1.796,36.51,1111122 
SCCF RECON,ioos:station:SCCF:51:1,2009-04-10T11:00:00Z,26.5545,-82.1715,1.752,36.51,1111122 
SCCF RECON,ioos:station:SCCF:51:1,2009-04-10T12:00:00Z,26.5545,-82.1715,1.783,36.52,1111122 
SCCF RECON,ioos:station:SCCF:51:1,2009-04-10T13:00:00Z,26.5545,-82.1715,1.817,36.52,1111122 
SCCF RECON,ioos:station:SCCF:51:1,2009-04-10T14:00:00Z,26.5545,-82.1715,1.917,36.49,1111122 
SCCF RECON,ioos:station:SCCF:51:1,2009-04-10T15:00:00Z,26.5545,-82.1715,2.05,36.3,1111122 
SCCF RECON,ioos:station:SCCF:51:1,2009-04-10T16:00:00Z,26.5545,-82.1715,2.16,36.26,1111122 
SCCF RECON,ioos:station:SCCF:51:1,2009-04-10T17:00:00Z,26.5545,-82.1715,2.218,36.3,1111122 
SCCF RECON,ioos:station:SCCF:51:1,2009-04-10T18:00:00Z,26.5545,-82.1715,2.229,36.22,1111122 
SCCF RECON,ioos:station:SCCF:51:1,2009-04-10T19:00:00Z,26.5545,-82.1715,2.151,36.4,1111122 
SCCF RECON,ioos:station:SCCF:51:1,2009-04-10T20:00:00Z,26.5545,-82.1715,2.04,36.51,1111122 
SCCF RECON,ioos:station:SCCF:51:1,2009-04-10T21:00:00Z,26.5545,-82.1715,1.917,36.51,1111122 
SCCF RECON,ioos:station:SCCF:51:1,2009-04-10T22:00:00Z,26.5545,-82.1715,1.77,36.51,1111122 
SCCF RECON,ioos:station:SCCF:51:1,2009-04-10T23:00:00Z,26.5545,-82.1715,1.633,36.51,1111122 
SCCF RECON,ioos:station:SCCF:51:1,2009-04-11T00:00:00Z,26.5545,-82.1715,1.517,36.54,1111122 
SCCF RECON,ioos:station:SCCF:51:1,2009-04-11T01:00:00Z,26.5545,-82.1715,1.434,36.52,1111122 
SCCF RECON,ioos:station:SCCF:51:1,2009-04-11T02:00:00Z,26.5545,-82.1715,1.421,36.5,1111122 
SCCF RECON,ioos:station:SCCF:51:1,2009-04-11T03:00:00Z,26.5545,-82.1715,1.51,36.51,1111122 
SCCF RECON,ioos:station:SCCF:51:1,2009-04-11T04:00:00Z,26.5545,-82.1715,1.637,36.51,1111122 
SCCF RECON,ioos:station:SCCF:51:1,2009-04-11T05:00:00Z,26.5545,-82.1715,1.763,36.39,1111122 
SCCF RECON,ioos:station:SCCF:51:1,2009-04-11T06:00:00Z,26.5545,-82.1715,1.864,36.49,1111122 
SCCF RECON,ioos:station:SCCF:51:1,2009-04-11T07:00:00Z,26.5545,-82.1715,1.903,36.38,1111122 
SCCF RECON,ioos:station:SCCF:51:1,2009-04-11T08:00:00Z,26.5545,-82.1715,1.892,36.42,1111122 
SCCF RECON,ioos:station:SCCF:51:1,2009-04-11T09:00:00Z,26.5545,-82.1715,1.84,36.51,1111122 
SCCF RECON,ioos:station:SCCF:51:1,2009-04-11T10:00:00Z,26.5545,-82.1715,1.79,36.53,1111122 
SCCF RECON,ioos:station:SCCF:51:1,2009-04-11T11:00:00Z,26.5545,-82.1715,1.741,36.54,1111122 
SCCF RECON,ioos:station:SCCF:51:1,2009-04-11T12:00:00Z,26.5545,-82.1715,1.714,36.52,1111122 
SCCF RECON,ioos:station:SCCF:51:1,2009-04-11T13:00:00Z,26.5545,-82.1715,1.744,36.53,1111122 
SCCF RECON,ioos:station:SCCF:51:1,2009-04-11T14:00:00Z,26.5545,-82.1715,1.802,36.53,1111122 
SCCF RECON,ioos:station:SCCF:51:1,2009-04-11T15:00:00Z,26.5545,-82.1715,1.89,36.49,1111122 
SCCF RECON,ioos:station:SCCF:51:1,2009-04-11T16:00:00Z,26.5545,-82.1715,2.004,36.34,1111122 